• In Netherlands
  • List of Countries
  • For 7 days
  • Water Temperature
  • Satellite Maps
  • Weather Map
  • Weather Widgets
  • user-avatar
    Login

    Hourly Weather Andora

    Today, 29 June, Thursday

    Time Temperature Precipitation Wind Pressure Humidity
    00:00 +7°C° 0.4 mm 1 mps 618 mmHg 89%
    01:00 +7°C° 0 mm 1 mps 618 mmHg 90%
    02:00 +6°C° 0 mm 1 mps 618 mmHg 91%
    03:00 +6°C° 0 mm 1 mps 618 mmHg 91%
    04:00 +7°C° 0 mm 1 mps 618 mmHg 89%
    05:00 +7°C° 0 mm 1 mps 619 mmHg 86%
    06:00 +8°C° 0 mm 1 mps 619 mmHg 84%
    07:00 +9°C° 0.1 mm 1 mps 620 mmHg 77%
    08:00 +9°C° 0.1 mm 2 mps 620 mmHg 71%
    09:00 +10°C° 0.1 mm 2 mps 621 mmHg 64%
    10:00 +11°C° 0.2 mm 3 mps 621 mmHg 60%
    11:00 +12°C° 0.2 mm 3 mps 622 mmHg 57%
    12:00 +12°C° 0.2 mm 4 mps 622 mmHg 53%
    13:00 +12°C° 0.5 mm 4 mps 622 mmHg 53%
    14:00 +12°C° 0.5 mm 4 mps 622 mmHg 53%
    15:00 +12°C° 0.5 mm 4 mps 621 mmHg 53%
    16:00 +11°C° 0.5 mm 3 mps 621 mmHg 56%
    17:00 +11°C° 0.5 mm 3 mps 621 mmHg 59%
    18:00 +10°C° 0.5 mm 2 mps 621 mmHg 63%
    19:00 +8°C° 0.2 mm 2 mps 620 mmHg 70%
    20:00 +7°C° 0.2 mm 1 mps 620 mmHg 77%
    21:00 +4°C° 0.2 mm 1 mps 620 mmHg 84%
    22:00 +4°C° 0 mm 1 mps 620 mmHg 86%
    23:00 +3°C° 0 mm 1 mps 619 mmHg 87%

    Tomorrow, 30 June, Friday

    Time Temperature Precipitation Wind Pressure Humidity
    00:00 +3°C° 0 mm 1 mps 619 mmHg 88%
    01:00 +3°C° 0 mm 1 mps 619 mmHg 89%
    02:00 +2°C° 0 mm 1 mps 619 mmHg 89%
    03:00 +2°C° 0 mm 1 mps 619 mmHg 89%
    04:00 +3°C° 0 mm 1 mps 620 mmHg 85%
    05:00 +5°C° 0 mm 1 mps 620 mmHg 81%
    06:00 +6°C° 0 mm 1 mps 621 mmHg 77%
    07:00 +8°C° 0 mm 1 mps 622 mmHg 66%
    08:00 +9°C° 0 mm 2 mps 623 mmHg 54%
    09:00 +12°C° 0 mm 2 mps 624 mmHg 43%
    10:00 +13°C° 0.1 mm 2 mps 625 mmHg 44%
    11:00 +14°C° 0.1 mm 2 mps 625 mmHg 45%
    12:00 +14°C° 0.1 mm 2 mps 625 mmHg 46%
    13:00 +12°C° 0.7 mm 3 mps 625 mmHg 53%
    14:00 +12°C° 0.7 mm 3 mps 625 mmHg 60%
    15:00 +11°C° 0.7 mm 3 mps 624 mmHg 66%
    16:00 +11°C° 0.5 mm 3 mps 624 mmHg 68%
    17:00 +10°C° 0.5 mm 2 mps 624 mmHg 71%
    18:00 +10°C° 0.5 mm 2 mps 624 mmHg 73%
    19:00 +8°C° 0.1 mm 2 mps 624 mmHg 79%
    20:00 +7°C° 0.1 mm 2 mps 624 mmHg 84%
    21:00 +5°C° 0.1 mm 2 mps 624 mmHg 90%
    22:00 +5°C° 0 mm 2 mps 624 mmHg 90%
    23:00 +5°C° 0 mm 1 mps 624 mmHg 90%

    Day after tomorrow, 1 July, Saturday

    Time Temperature Precipitation Wind Pressure Humidity
    00:00 +5°C° 0 mm 1 mps 624 mmHg 90%
    01:00 +5°C° 0 mm 1 mps 624 mmHg 89%
    02:00 +5°C° 0 mm 1 mps 624 mmHg 88%
    03:00 +5°C° 0 mm 1 mps 624 mmHg 87%
    04:00 +5°C° 0 mm 1 mps 624 mmHg 85%
    05:00 +6°C° 0 mm 1 mps 625 mmHg 83%
    06:00 +7°C° 0 mm 1 mps 625 mmHg 81%
    07:00 +8°C° 0.1 mm 1 mps 626 mmHg 76%
    08:00 +10°C° 0.1 mm 1 mps 626 mmHg 71%
    09:00 +11°C° 0.1 mm 1 mps 627 mmHg 66%
    10:00 +10°C° 0.5 mm 2 mps 627 mmHg 67%
    11:00 +12°C° 0.5 mm 2 mps 627 mmHg 68%
    12:00 +11°C° 0.5 mm 3 mps 627 mmHg 69%
    13:00 +12°C° 0.7 mm 3 mps 627 mmHg 69%
    14:00 +12°C° 0.7 mm 3 mps 627 mmHg 70%
    15:00 +12°C° 0.7 mm 3 mps 627 mmHg 71%
    16:00 +12°C° 0.3 mm 3 mps 627 mmHg 72%
    17:00 +11°C° 0.3 mm 3 mps 628 mmHg 73%
    18:00 +11°C° 0.3 mm 3 mps 628 mmHg 74%
    19:00 +10°C° 0.1 mm 3 mps 628 mmHg 78%
    20:00 +9°C° 0.1 mm 3 mps 628 mmHg 82%
    21:00 +8°C° 0.1 mm 3 mps 628 mmHg 85%
    22:00 +7°C° 0.2 mm 3 mps 628 mmHg 86%
    23:00 +7°C° 0.2 mm 3 mps 628 mmHg 87%

    2 July, Sunday

    Time Temperature Precipitation Wind Pressure Humidity
    00:00 +7°C° 0.2 mm 2 mps 628 mmHg 87%
    01:00 +7°C° 0.2 mm 3 mps 628 mmHg 88%
    02:00 +7°C° 0.2 mm 3 mps 628 mmHg 89%
    03:00 +7°C° 0.2 mm 3 mps 628 mmHg 90%
    04:00 +7°C° 0.1 mm 3 mps 629 mmHg 88%
    05:00 +8°C° 0.1 mm 3 mps 629 mmHg 85%
    06:00 +8°C° 0.1 mm 3 mps 629 mmHg 83%
    07:00 +10°C° 0 mm 3 mps 630 mmHg 76%
    08:00 +12°C° 0 mm 3 mps 631 mmHg 68%
    09:00 +13°C° 0 mm 3 mps 632 mmHg 61%
    10:00 +16°C° 0 mm 3 mps 632 mmHg 54%
    11:00 +17°C° 0 mm 3 mps 633 mmHg 47%
    12:00 +19°C° 0 mm 3 mps 633 mmHg 40%
    13:00 +19°C° 0 mm 3 mps 633 mmHg 40%
    14:00 +19°C° 0 mm 3 mps 633 mmHg 39%
    15:00 +19°C° 0 mm 3 mps 633 mmHg 38%
    16:00 +18°C° 0 mm 3 mps 632 mmHg 45%
    17:00 +17°C° 0 mm 3 mps 632 mmHg 52%
    18:00 +16°C° 0 mm 3 mps 632 mmHg 58%
    19:00 +13°C° 0 mm 3 mps 631 mmHg 68%
    20:00 +12°C° 0 mm 2 mps 631 mmHg 78%
    21:00 +9°C° 0 mm 2 mps 630 mmHg 87%
    22:00 +8°C° 0 mm 2 mps 630 mmHg 88%
    23:00 +8°C° 0 mm 2 mps 630 mmHg 88%

    3 July, Monday

    Time Temperature Precipitation Wind Pressure Humidity
    00:00 +7°C° 0 mm 2 mps 630 mmHg 88%
    01:00 +7°C° 0 mm 2 mps 629 mmHg 88%
    02:00 +7°C° 0 mm 2 mps 629 mmHg 87%
    03:00 +7°C° 0 mm 2 mps 629 mmHg 86%
    04:00 +8°C° 0 mm 2 mps 629 mmHg 83%
    05:00 +9°C° 0 mm 2 mps 630 mmHg 80%
    06:00 +10°C° 0 mm 2 mps 630 mmHg 76%
    07:00 +13°C° 0 mm 2 mps 631 mmHg 67%
    08:00 +16°C° 0 mm 1 mps 632 mmHg 58%
    09:00 +19°C° 0 mm 1 mps 633 mmHg 49%
    10:00 +20°C° 0 mm 1 mps 633 mmHg 46%
    11:00 +22°C° 0 mm 1 mps 633 mmHg 42%
    12:00 +23°C° 0 mm 1 mps 633 mmHg 39%
    13:00 +23°C° 0 mm 2 mps 633 mmHg 40%
    14:00 +23°C° 0 mm 2 mps 633 mmHg 41%
    15:00 +24°C° 0 mm 2 mps 632 mmHg 42%
    16:00 +22°C° 0 mm 1 mps 632 mmHg 47%
    17:00 +21°C° 0 mm 1 mps 631 mmHg 53%
    18:00 +20°C° 0 mm 1 mps 631 mmHg 59%
    19:00 +16°C° 0 mm 1 mps 630 mmHg 69%
    20:00 +13°C° 0 mm 1 mps 629 mmHg 79%
    21:00 +10°C° 0 mm 1 mps 628 mmHg 89%
    22:00 +9°C° 0 mm 0 mps 627 mmHg 90%
    23:00 +8°C° 0 mm 0 mps 627 mmHg 90%

    4 July, Tuesday

    Time Temperature Precipitation Wind Pressure Humidity
    00:00 +8°C° 0 mm 0 mps 627 mmHg 91%
    01:00 +8°C° 0 mm 0 mps 626 mmHg 91%
    02:00 +7°C° 0 mm 0 mps 626 mmHg 90%
    03:00 +7°C° 0 mm 0 mps 626 mmHg 90%
    04:00 +9°C° 0 mm 0 mps 627 mmHg 85%
    05:00 +11°C° 0 mm 0 mps 628 mmHg 79%
    06:00 +14°C° 0 mm 0 mps 628 mmHg 74%
    07:00 +18°C° 0 mm 1 mps 629 mmHg 64%
    08:00 +20°C° 0 mm 1 mps 630 mmHg 55%
    09:00 +22°C° 0 mm 1 mps 630 mmHg 46%
    10:00 +23°C° 0 mm 2 mps 631 mmHg 43%
    11:00 +24°C° 0 mm 2 mps 631 mmHg 40%
    12:00 +25°C° 0 mm 2 mps 631 mmHg 37%
    13:00 +25°C° 0 mm 2 mps 630 mmHg 37%
    14:00 +25°C° 0 mm 2 mps 630 mmHg 37%
    15:00 +25°C° 0 mm 2 mps 630 mmHg 38%
    16:00 +24°C° 0 mm 2 mps 629 mmHg 43%
    17:00 +23°C° 0 mm 2 mps 629 mmHg 48%
    18:00 +23°C° 0 mm 2 mps 628 mmHg 53%
    19:00 +19°C° 0 mm 2 mps 627 mmHg 62%
    20:00 +16°C° 0 mm 1 mps 627 mmHg 72%
    21:00 +13°C° 0 mm 1 mps 626 mmHg 81%
    22:00 +13°C° 0 mm 1 mps 625 mmHg 81%
    23:00 +12°C° 0 mm 1 mps 625 mmHg 81%
    Show more